Regional Weather Roundup
Issued by NWS Kansas City/Pleasant Hill, MO

Home | Current Version | Previous Version | Graphics & Text | Print | Product List | Glossary Off
Versions: 1 2 3 4 5 6 7 8 9 10 11 12 13 14 15 16 17 18 19 20 21 22 23 24 25 26 27 28 29 30 31 32 33 34 35 36 37 38 39 40 41 42 43 44 45 46 47 48 49 50

000
ASUS43 KEAX 262111
RWREAX

WEATHER ROUNDUP FOR EASTERN KANSAS AND NORTHWEST MISSOURI
NATIONAL WEATHER SERVICE KANSAS CITY/PLEASANT HILL MO
300 PM CST FRI DEC 26 2014

KSZ040-057-103>105-MOZ028-029-037-043-262200-
...KANSAS CITY METROPOLITAN AREA...

CITY           SKY/WX    TMP DP  RH WIND       PRES   REMARKS
K.C. INTL      CLOUDY    45  36  70 N7        29.90S
K.C. DOWNTOWN  CLOUDY    49  38  65 NW6       29.90S
LEES SUMMIT    CLOUDY    55  43  63 SW6       29.89F
OLATHE - IXD   CLOUDY    49  40  71 NW9       29.90S
OLATHE - OJC   CLOUDY    52  42  69 W5        29.88F
LAWRENCE       CLOUDY    43  34  70 NW12      29.92S

$$

MOZ001>008-011>017-020>025-030>033-038>040-044>046-053-054-262200-
...NORTHERN AND CENTRAL MISSOURI...

CITY           SKY/WX    TMP DP  RH WIND       PRES   REMARKS
ST. JOSEPH     CLOUDY    39  33  79 NW9       29.94F WCI  33
MOSBY          CLOUDY    48  37  66 NW10      29.90S
WARRENSBURG    CLOUDY    55  45  67 S5        29.90F
WHITEMAN AFB   CLOUDY    57  46  66 SW10      29.90F
CLINTON        PTSUNNY   59  46  63 S8        29.91F
SEDALIA        CLOUDY    59  45  59 S8        29.92F
WARSAW         NOT AVBL
MARSHALL       SUNNY     61  46  59 SW9G18    29.94
CHILLICOTHE      N/A     54  42  64 SW9       29.94R
MOBERLY        PTSUNNY   57  41  54 S12       29.95S
KIRKSVILLE     PTSUNNY   53  42  66 S9        29.93R

$$

MOZ041-047>049-056>058-063>065-088>090-097-262200-
...EASTERN AND SOUTHERN MISSOURI...

CITY           SKY/WX    TMP DP  RH WIND       PRES   REMARKS
ST. LOUIS INTL MOSUNNY   61  42  49 S12       30.01F
SPIRIT OF STL  MOSUNNY   61  43  51 SW8       29.99F
COLUMBIA       CLOUDY    58  45  62 S14       29.95R
JEFFERSON CITY PTSUNNY   60  44  55 S14G21    29.96R
ROLLA          CLOUDY    55  44  66 S13       29.98R
LEBANON        MOSUNNY   54  45  71 S12G17    29.98S
OSAGE BEACH    PTSUNNY   55  43  62 S12G18    29.97R
SPRINGFIELD    CLOUDY    53  45  74 SE18      29.94F
BRANSON        CLOUDY    52  46  82 SE12      29.99F
NEVADA         CLOUDY    57  46  67 S8        29.92S
JOPLIN         CLOUDY    56  48  74 S14G24    29.91S
WEST PLAINS    CLOUDY    51  41  68 S12       30.04F

$$

IAZ060-094-KSZ022-034>040-054-083-096-NEZ052-066-093-262200-
...KANSAS...SOUTHEAST NEBRASKA AND IOWA...

CITY           SKY/WX    TMP DP  RH WIND       PRES   REMARKS
TOPEKA         CLOUDY    40  34  79 N10       29.95R WCI  33
MANHATTAN      CLOUDY    35  33  92 N7        29.95R FOG     WCI  29
EMPORIA        CLOUDY    39  33  79 NW9       29.91S WCI  33
CHANUTE        CLOUDY    57  46  66 SW12      29.88F
WICHITA        CLOUDY    40  32  73 N10       29.92R WCI  33
OMAHA          CLOUDY    33  30  88 N13       30.00R WCI  24
LINCOLN        CLOUDY    32  28  85 N10       30.01R WCI  24
FALLS CITY     CLOUDY    36  31  82 N6        29.95S WCI  31
LAMONI         CLOUDY    40  33  76 N5        29.93R
DES MOINES     CLOUDY    35  31  85 N8        29.94S FOG     WCI  29

$$




USA.gov is the U.S. government's official web portal to all federal, state and local government web resources and services.